Regional Weather Roundup
Issued by NWS

Home | Current Version | Previous Version | Text Only | Print | Product List | Glossary On
Versions: 1 2 3 4 5 6 7 8 9 10 11 12 13 14 15 16 17 18 19 20 21 22 23 24 25 26 27
000
ASPQ40 PGUM 220312
RWRPQ
WEATHER ROUNDUP FOR THE MARIANAS AND MICRONESIA
NATIONAL WEATHER SERVICE TIYAN GU
100 PM CHST FRI SEP 22 2017

GUZ001>004-220400-
MARIANA ISLANDS-

CITY           SKY/WX    TMP DP  RH WIND       PRES   REMARKS
GUAM AIRPORT   PTSUNNY   88  81  79 N10       29.88F HX 105
ANDERSEN AFB   MOSUNNY   86  77  74 NE10      29.89F HX  97
ROTA AIRPORT   MOSUNNY   82  73  74 NE12      29.88F
TINIAN AP      NOT AVBL
SAIPAN AP      MOSUNNY   90  79  70 NE13      29.87F HX 105

$$

PMZ161-220400-
REPUBLIC OF PALAU-

CITY           SKY/WX    TMP DP  RH WIND       PRES   REMARKS
KOROR AP       PTSUNNY   86  75  70 S6        29.86F HX  95
KOROR WSO      CLOUDY    86  77  74 S8        29.86F HX  97

$$

PMZ171>174-220400-
FEDERATED STATES OF MICRONESIA-

CITY           SKY/WX    TMP DP  RH WIND       PRES   REMARKS
YAP AIRPORT    PTSUNNY   88  77  70 CALM      29.85F HX 100
CHUUK AP       PTSUNNY   88  82  84 NE7       29.77F HX 108
POHNPEI AP     LGT RAIN  79  77  94 SW5       29.79F
POHNPEI WSO    LGT RAIN  79  77  94 W7        29.81F
KOSRAE AP      PTSUNNY   90  77  66 SE8       29.80F HX 102

$$

PMZ181-220400-
REPUBLIC OF THE MARSHALL ISLANDS-

CITY           SKY/WX    TMP DP  RH WIND       PRES   REMARKS
KWAJALEIN AP   PTSUNNY   79  75  89 SW8       29.86S
MAJURO AP      LGT RAIN  86  77  74 SE15      29.84S HX  97
MAJURO WSO     LGT RAIN  84  77  79 S9        29.82F HX  94

$$





USA.gov is the U.S. government's official web portal to all federal, state and local government web resources and services.